Погода Мыс Биллингс

Погода Мыс Биллингс : погода сейчас, прогноз погоды и архив. Всё, что Вы хотите узнать о погоде Мыс Биллингс!

Поиск расширенной информации на нашем сайте:

Другие новости

Новости СМИ2

Главная страница сайта

Новости сайта

03.07.2017

Напоминаем, что на нашем специализированном сайте Метеоцентр.Азия вы можете получить высокодетализированные автоматические прогнозы погоды по пунктам России, СНГ и мира в авиационном формате (включающие направление и скорость ветра, видимость, явления погоды, количество и форму облачности, нижнюю и верхнюю границу облачности).


Погода Мыс Биллингс - сегодня

Время (UTC), дата Ветер
(°,м/с) 
Видим.   Явления Облачность Т
(°С)
Тd
(°С)
f(%) Тe
(°С)
Pmin
(гПа)
dP
(гПа)
Po
(мм)
O2
(г/м3)
Тmin Tmax R s Состояние
почвы
18 20.07.17 090 (В) 7{09}  20000 м    10/10 300 м 
[St]
+3.4 +1.9 90 1014.7  -2  761  302  +2.6         
21 20.07.17 110 (В) 11{13}  10 км    10/10 300 м 
[St]
+6.6 +5.2 91 +3  1012.9  -1.8  759  298           
00 21.07.17 110 (В) 12-15{15}  20000 м    10/10 300 м 
[St]
+7 +5.6 91 +3  1011  -1.9  758  297           
03 21.07.17 110 (В) 12-15{15}  20000 м    9/8 300 м верхняя 
[St|Ci]
+8.9 +7.4 90 +6  1008.3  -2.7  756  294           
06 21.07.17 110 (В) 12-15{15}  10 км    8/5 600 м средняя, верхняя 
[Sc|Ac trans|Ci sp]
+9.3 +7.8 90 +6  1006.1  -2.2  754  293    +9.3       
09 21.07.17 130 (ЮВ) 6{08}  10 км  слаб. ливневой дождь  9/9 300 м кучево-дожд. 
[Cb cap]
+12.2 +11.7 97 +14  1005.1  -1  754  288           
12 21.07.17 200 (Ю) 4{06}  10 км  слаб. ливневой дождь  9/9 300 м кучево-дожд. 
[Cb cap]
+13.1 +12.2 94 +17  1005.1  754  287           
15 21.07.17 210 (ЮЗ) 4{06}  20000 м  {ливн. осадки}  9/9 600 м 
[Sc]
+12.4 +10 85 +13  1005.3  0.2  754  289           
18 21.07.17 300 (СЗ) 8-10{10}  4000 м  дымка{ливн. осадки}  10/10 600 м 
[Sc]
+5.7 +4.5 92 +3  1007.3  755  297  +5.7       
21 21.07.17 300 (СЗ) 7{09}  4000 м  дождь  10/10 200 м 
[Frnb|Ns]
+5.3 +4.6 95 +3  1011.2  3.3  758  299           
00 22.07.17 290 (З) 6{08}  4000 м  дождь  10/10 200 м 
[Frnb|Ns]
+5.5 +4.8 95 +3  1012.1  0.9  759  299           
03 22.07.17 310 (СЗ) 1{03}  20000 м  {дождь}  9/9 600 м 
[Sc]
+5.3 +3.6 89 +6  1012.3  0.2  759  299           
06 22.07.17 060 (СВ) 1{03}  20000 м  {дождь}  9/9 600 м 
[Sc]
+5.1 +2.9 86 +6  1011.8  -0.5  759  300    +5.7     
09 22.07.17 110 (В) 3{05}  20000 м    9/9 600 м 
[Sc]
+5.7 +3.3 85 +5  1011  -0.8  758  299           
12 22.07.17 100 (В) 4{06}  20000 м    9/9 600 м 
[Sc]
+5.2 +3 86 +4  1009.3  -1.7  757  299           
15 22.07.17 100 (В) 8-10{10}  20000 м    9/9 600 м 
[Sc]
+4.7 +2.5 86 +1  1006.3  -3  754  298           
18 22.07.17 090 (В) 7{09}  20000 м    9/9 600 м 
[Sc]
+4.6 +2.4 86 +2  1004  -2.3  753  298  +5.2         
21 22.07.17 090 (В) 10-12{12}  4000 м  слаб. дождь  10/10 600 м 
[Sc]
+4.1 +3.1 93 1001.3  -2.7  751  298           
00 23.07.17 090 (В) 8-10{10}  4000 м  слаб. дождь  10/10 600 м 
[Sc]
+5.1 +3.9 92 +2  998.7  -2.6  749  296           
03 23.07.17 080 (В) 6{08}  10 км  {дождь}  10/10 600 м 
[Sc]
+5 +3.6 91 +2  995.7  -3  746  295           
06 23.07.17 060 (СВ) 4{06}  4000 м  слаб. дождь  10/10 600 м 
[Sc]
+4.8 +3.6 92 +3  993.9  -1.8  745  294    +5.1     
09 23.07.17 020 (С) 3{05}  4000 м  слаб. дождь  10/10 600 м 
[Frnb|Ns]
+4.3 +2.8 90 +3  993.2  -0.7  745  295           
12 23.07.17 350 (С) 4{06}  4000 м  слаб. дождь  10/10 200 м 
[Frnb|Ns]
+3.9 +2.7 92 +2  993.8  0.6  745  296           
15 23.07.17 020 (С) 3{05}  4000 м  слаб. дождь  10/10 200 м 
[Frnb|Ns]
+3.5 +2.2 91 +2  994.5  0.7  746  296           
18 23.07.17 310 (СЗ) 6{08}  4000 м  слаб. дождь  10/10 200 м 
[Frnb|Ns]
+3.7 +2.2 90 +1  997  2.5  747  297  +3.5       
Время (UTC), дата Ветер
(°,м/с) 
Видим.   Явления Облачность Т
(°С)
Тd
(°С)
f(%) Тe
(°С)
Pmin
(гПа)
dP
(гПа)
Po
(мм)
O2
(г/м3)
Тmin Tmax R s Состояние
почвы

Для получения пояснительной информации подведите курсор к названию столбца.

ПОГОДА Мыс Биллингс - архив

Всё, что Вы хотите узнать о погоде Мыс Биллингс - удобно и подробно!

Выберите нужную дату (начиная с 1 января 2015* года) и нажмите кнопку "Найти".
Будут отображены архивные сводки погоды по пункту Мыс Биллингс, начиная с указанной даты.


Отображать данные в формате CSV (для использования в таблицах Excel)


Внимание! Наш архив погоды предназначен исключительно для личного некоммерческого использования в познавательных целях. Если Вам необходимы официальные справки о состоянии погоды (для производственных, юридических, коммерческих и т.п. целей), обращайтесь в органы Росгидромета.

*Примечание: данная дата относится к архиву по метеостанциям СССР (Россия, СНГ, Балтия).
Архив по метеостанциям Зарубежной Европы и Азии (кроме Китая) хранится 10 дней, по другим регионам земного шара (Китай, Африка, Америка, Австралия, Океания) - 1 день.

Мыс Биллингс - район местоположения метеостанции


Название, широта, долгота, высота метеостанции:
Мыс Биллингс 69.88°ш. 175.76°д. 3 м над ур. моря [Российская Федерация]

Дополнительная информация

В oтличие oт бoльшинства пoгoдных сайтoв мы публикуем пoдрoбную метеoинфoрмацию в детальнoм прoфессиoнальнoм фoрмате.

Характеристики температуры и влажнoсти вoздуха измеряются на высoте 2 м в тени вдали oт зданий и деревьев.
Скoрoсть ветра измеряется на высoте 10 м (на урoвне рoста челoвека скoрoсть ветра ниже в 1.5-2 раза). Если метеoстанция нахoдится в гoрoде или в лесу, тo скoрoсть ветра занижена на 2-4 м/с пo сравнению с oткрытым местoм. Скoрoсть ветра над акватoриями крупных рек и oзёр, а также на вершинах хoлмoв на 2-5 м/с выше, чем в oбычных услoвиях.
Атмoсфернoе давление в разных тoчках местнoсти мoжет значительнo oтличаться oт давления на метеoстанции, в зависимoсти oт услoвий рельефа (при пoдъёме на 10 м давление пoнижается примернo на 1 мм рт.ст.).